This demonstration page uses our WeatherBlox Daily Observations layout. Learn more.

41.55636, -103.73856

Hourly Observations for September 13, 2019

Temp ( °F °C ) Dew Point ( °F °C ) Humidity (%) Winds ( mph kmh ) Pressure ( in mb ) Visibility ( mi km ) Precip ( " mm )
12:58 am 00:58 Clear 44 6.4 39 3.9 84 84 NW 6 9 30.21 1023 10 16.09344 0 0
1:58 am 01:58 Clear 43 6 39 3.9 87 87 Calm 30.21 1023 10 16.09344 0 0
2:58 am 02:58 Clear 43 6.3 39 3.8 84 84 SW 7 11 30.21 1023 10 16.09344 0 0
3:58 am 03:58 Clear 42 5.7 39 3.9 88 88 WSW 6 9 30.21 1023 10 16.09344 0 0
4:58 am 04:58 Clear 42 5.8 38 3.6 86 86 W 10 17 30.21 1023 10 16.09344 0 0
5:58 am 05:58 Clear 44 6.5 38 3.6 82 82 WSW 10 17 30.21 1023 10 16.09344 0 0
6:58 am 06:58 Sunny 44 6.5 39 4 84 84 WSW 8 13 30.24 1024 10 16.09344 0 0
7:58 am 07:58 Sunny 50 9.8 42 5.7 76 76 W 10 17 30.24 1024 10 16.09344 0 0
8:58 am 08:58 Sunny 58 14.5 45 7.1 61 61 W 12 19 30.21 1023 10 16.09344 0 0
9:58 am 09:58 Sunny 65 18.3 44 6.6 47 47 WSW 10 17 30.21 1023 10 16.09344 0 0
10:58 am 10:58 Sunny 68 20.1 39 4.1 35 35 WSW 12 19 30.18 1022 10 16.09344 0 0
11:58 am 11:58 Sunny 70 21 44 6.5 39 39 W 12 19 30.15 1021 10 16.09344 0 0
12:58 pm 12:58 Sunny 72 22.1 42 5.6 34 34 W 7 11 30.15 1021 10 16.09344 0 0
1:58 pm 13:58 Sunny 74 23.2 41 5 31 31 WSW 12 19 30.09 1019 10 16.09344 0 0
2:58 pm 14:58 Sunny 74 23.5 40 4.2 29 29 Calm 30.06 1018 10 16.09344 0 0
3:58 pm 15:58 Sunny 74 23.6 37 2.6 25 25 W 5 7 30.06 1018 10 16.09344 0 0
4:58 pm 16:58 Sunny 75 24 37 3 25 25 W 8 13 30.06 1018 10 16.09344 0 0
5:58 pm 17:58 Sunny 73 22.6 41 5.1 32 32 S 5 7 30.03 1017 10 16.09344 0 0
6:58 pm 18:58 Sunny 66 19 45 7.3 47 47 S 7 11 30.06 1018 10 16.09344 0 0
7:58 pm 19:58 Clear 62 16.7 42 5.4 47 47 S 8 13 30.06 1018 10 16.09344 0 0
8:58 pm 20:58 Clear 59 15.1 42 5.7 54 54 SSW 8 13 30.06 1018 10 16.09344 0 0
9:58 pm 21:58 Clear 56 13.2 44 6.4 64 64 WSW 7 11 30.06 1018 10 16.09344 0 0
10:58 pm 22:58 Clear 54 12.1 44 6.7 70 70 WSW 9 15 30.06 1018 10 16.09344 0 0
11:58 pm 23:58 Clear 50 9.9 44 6.7 81 81 W 9 15 30.06 1018 10 16.09344 0 0

Powered by AerisWeather